When you browse on this site, cookies collect data to enhance your experience and personalize the content and advertising you see.
Visit our Privacy Policy to learn more. By continuing to use the site, you agree to this use of cookies and data.
  • en Suisse
  • Liste des pays
  • À 7 jours
  • Température de l'eau
  • Carte satellitaire
  • Carte météo
  • Widgets météo
  • user-avatar
    Se connecter

    Météo par heure à Malanje

    Ce jour, 21 Mars, Jeudi

    Heure Température Précipitation Vent Pression Humidité
    00:00 +20°C° 0 mm 1 m/s 664 mmHg 95%
    01:00 +19°C° 0 mm 0 m/s 665 mmHg 93%
    02:00 +18°C° 0.3 mm 0 m/s 664 mmHg 94%
    03:00 +18°C° 0.3 mm 0 m/s 664 mmHg 94%
    04:00 +18°C° 0.3 mm 0 m/s 664 mmHg 95%
    05:00 +20°C° 0 mm 1 m/s 665 mmHg 95%
    06:00 +21°C° 0 mm 1 m/s 665 mmHg 95%
    07:00 +21°C° 0 mm 1 m/s 665 mmHg 94%
    08:00 +23°C° 0 mm 1 m/s 666 mmHg 85%
    09:00 +25°C° 0 mm 2 m/s 666 mmHg 77%
    10:00 +27°C° 0 mm 2 m/s 666 mmHg 68%
    11:00 +29°C° 0 mm 2 m/s 666 mmHg 62%
    12:00 +30°C° 0 mm 2 m/s 666 mmHg 56%
    13:00 +31°C° 0 mm 2 m/s 665 mmHg 50%
    14:00 +31°C° 0 mm 1 m/s 665 mmHg 52%
    15:00 +31°C° 0 mm 1 m/s 665 mmHg 54%
    16:00 +31°C° 0 mm 1 m/s 664 mmHg 56%
    17:00 +28°C° 0 mm 1 m/s 664 mmHg 61%
    18:00 +26°C° 0 mm 1 m/s 664 mmHg 66%
    19:00 +24°C° 0 mm 1 m/s 664 mmHg 71%
    20:00 +24°C° 0.1 mm 1 m/s 664 mmHg 75%
    21:00 +23°C° 0.1 mm 1 m/s 664 mmHg 78%
    22:00 +22°C° 0.1 mm 1 m/s 665 mmHg 82%
    23:00 +22°C° 0 mm 1 m/s 664 mmHg 84%

    Demain, 22 Mars, Vendredi

    Heure Température Précipitation Vent Pression Humidité
    00:00 +20°C° 0 mm 0 m/s 664 mmHg 85%
    01:00 +19°C° 0 mm 0 m/s 664 mmHg 87%
    02:00 +19°C° 0 mm 0 m/s 664 mmHg 89%
    03:00 +19°C° 0 mm 0 m/s 663 mmHg 91%
    04:00 +18°C° 0 mm 0 m/s 663 mmHg 92%
    05:00 +20°C° 0.1 mm 1 m/s 664 mmHg 92%
    06:00 +21°C° 0.1 mm 1 m/s 664 mmHg 91%
    07:00 +21°C° 0.1 mm 1 m/s 664 mmHg 91%
    08:00 +23°C° 0.8 mm 1 m/s 665 mmHg 87%
    09:00 +25°C° 0.8 mm 1 m/s 666 mmHg 83%
    10:00 +27°C° 0.8 mm 1 m/s 666 mmHg 79%
    11:00 +28°C° 0.7 mm 1 m/s 666 mmHg 71%
    12:00 +29°C° 0.7 mm 1 m/s 666 mmHg 63%
    13:00 +30°C° 0.7 mm 1 m/s 665 mmHg 54%
    14:00 +30°C° 0 mm 1 m/s 665 mmHg 56%
    15:00 +30°C° 0 mm 1 m/s 664 mmHg 57%
    16:00 +30°C° 0 mm 1 m/s 664 mmHg 59%
    17:00 +28°C° 0 mm 1 m/s 664 mmHg 63%
    18:00 +26°C° 0 mm 1 m/s 664 mmHg 68%
    19:00 +22°C° 0 mm 0 m/s 663 mmHg 73%
    20:00 +23°C° 1.1 mm 1 m/s 664 mmHg 79%
    21:00 +22°C° 1.1 mm 1 m/s 664 mmHg 84%
    22:00 +21°C° 1.1 mm 1 m/s 664 mmHg 90%
    23:00 +21°C° 0 mm 1 m/s 664 mmHg 91%

    Après-demain, 23 Mars, Samedi

    Heure Température Précipitation Vent Pression Humidité
    00:00 +19°C° 0 mm 0 m/s 664 mmHg 92%
    01:00 +18°C° 0 mm 0 m/s 664 mmHg 93%
    02:00 +18°C° 0.1 mm 0 m/s 663 mmHg 93%
    03:00 +18°C° 0.1 mm 0 m/s 663 mmHg 93%
    04:00 +20°C° 0.1 mm 1 m/s 663 mmHg 94%
    05:00 +20°C° 0.3 mm 1 m/s 663 mmHg 94%
    06:00 +20°C° 0.3 mm 1 m/s 664 mmHg 94%
    07:00 +21°C° 0.3 mm 1 m/s 665 mmHg 95%
    08:00 +23°C° 0.5 mm 1 m/s 665 mmHg 87%
    09:00 +26°C° 0.5 mm 1 m/s 666 mmHg 80%
    10:00 +28°C° 0.5 mm 1 m/s 667 mmHg 72%
    11:00 +30°C° 0.8 mm 1 m/s 666 mmHg 66%
    12:00 +29°C° 0.8 mm 0 m/s 666 mmHg 61%
    13:00 +30°C° 0.8 mm 0 m/s 665 mmHg 55%
    14:00 +30°C° 0 mm 0 m/s 665 mmHg 58%
    15:00 +31°C° 0 mm 1 m/s 664 mmHg 60%
    16:00 +30°C° 0 mm 1 m/s 663 mmHg 63%
    17:00 +28°C° 0.5 mm 1 m/s 663 mmHg 69%
    18:00 +26°C° 0.5 mm 1 m/s 663 mmHg 75%
    19:00 +24°C° 0.5 mm 2 m/s 663 mmHg 81%
    20:00 +23°C° 0.9 mm 2 m/s 664 mmHg 87%
    21:00 +21°C° 0.9 mm 2 m/s 664 mmHg 92%
    22:00 +21°C° 0.9 mm 2 m/s 664 mmHg 97%
    23:00 +21°C° 1.5 mm 2 m/s 664 mmHg 97%

    24 Mars, Dimanche

    Heure Température Précipitation Vent Pression Humidité
    00:00 +21°C° 1.5 mm 1 m/s 664 mmHg 97%
    01:00 +21°C° 1.5 mm 1 m/s 664 mmHg 97%
    02:00 +21°C° 0.4 mm 1 m/s 664 mmHg 97%
    03:00 +20°C° 0.4 mm 2 m/s 664 mmHg 97%
    04:00 +20°C° 0.4 mm 2 m/s 664 mmHg 98%
    05:00 +20°C° 0.3 mm 2 m/s 664 mmHg 97%
    06:00 +20°C° 0.3 mm 2 m/s 665 mmHg 97%
    07:00 +21°C° 0.3 mm 1 m/s 665 mmHg 97%
    08:00 +22°C° 0.1 mm 1 m/s 665 mmHg 94%
    09:00 +23°C° 0.1 mm 1 m/s 666 mmHg 90%
    10:00 +24°C° 0.1 mm 1 m/s 666 mmHg 86%
    11:00 +25°C° 0.8 mm 2 m/s 665 mmHg 84%
    12:00 +26°C° 0.8 mm 2 m/s 665 mmHg 82%
    13:00 +27°C° 0.8 mm 2 m/s 664 mmHg 79%
    14:00 +26°C° 0.5 mm 2 m/s 664 mmHg 79%
    15:00 +26°C° 0.5 mm 2 m/s 664 mmHg 80%
    16:00 +26°C° 0.5 mm 2 m/s 663 mmHg 80%
    17:00 +25°C° 0.4 mm 2 m/s 664 mmHg 85%
    18:00 +24°C° 0.4 mm 2 m/s 664 mmHg 90%
    19:00 +22°C° 0.4 mm 1 m/s 664 mmHg 95%
    20:00 +22°C° 0.2 mm 1 m/s 664 mmHg 96%
    21:00 +21°C° 0.2 mm 2 m/s 665 mmHg 97%
    22:00 +20°C° 0.2 mm 2 m/s 665 mmHg 98%
    23:00 +20°C° 0.4 mm 2 m/s 665 mmHg 98%

    25 Mars, Lundi

    Heure Température Précipitation Vent Pression Humidité
    00:00 +20°C° 0.4 mm 2 m/s 664 mmHg 98%
    01:00 +20°C° 0.4 mm 2 m/s 664 mmHg 98%
    02:00 +20°C° 0 mm 2 m/s 664 mmHg 98%
    03:00 +20°C° 0 mm 2 m/s 664 mmHg 98%
    04:00 +21°C° 0 mm 1 m/s 664 mmHg 98%
    05:00 +21°C° 0 mm 1 m/s 664 mmHg 97%
    06:00 +21°C° 0 mm 1 m/s 665 mmHg 97%
    07:00 +19°C° 0 mm 0 m/s 665 mmHg 97%
    08:00 +21°C° 0.4 mm 0 m/s 666 mmHg 92%
    09:00 +23°C° 0.4 mm 0 m/s 666 mmHg 86%
    10:00 +25°C° 0.4 mm 0 m/s 667 mmHg 81%
    11:00 +27°C° 0.8 mm 1 m/s 666 mmHg 76%
    12:00 +28°C° 0.8 mm 1 m/s 666 mmHg 72%
    13:00 +29°C° 0.8 mm 1 m/s 665 mmHg 67%
    14:00 +28°C° 2 mm 1 m/s 664 mmHg 73%
    15:00 +27°C° 2 mm 1 m/s 664 mmHg 79%
    16:00 +26°C° 2 mm 1 m/s 663 mmHg 85%
    17:00 +25°C° 0.2 mm 1 m/s 664 mmHg 86%
    18:00 +23°C° 0.2 mm 1 m/s 664 mmHg 88%
    19:00 +22°C° 0.2 mm 1 m/s 664 mmHg 89%
    20:00 +20°C° 0.1 mm 0 m/s 665 mmHg 91%
    21:00 +19°C° 0.1 mm 0 m/s 665 mmHg 92%
    22:00 +19°C° 0.1 mm 0 m/s 665 mmHg 94%
    23:00 +19°C° 0.2 mm 0 m/s 665 mmHg 95%

    26 Mars, Mardi

    Heure Température Précipitation Vent Pression Humidité
    00:00 +19°C° 0.2 mm 0 m/s 665 mmHg 95%
    01:00 +19°C° 0.2 mm 0 m/s 665 mmHg 96%
    02:00 +19°C° 0 mm 0 m/s 664 mmHg 96%
    03:00 +19°C° 0 mm 0 m/s 664 mmHg 96%
    04:00 +18°C° 0 mm 0 m/s 664 mmHg 96%
    05:00 +19°C° 0 mm 0 m/s 664 mmHg 95%
    06:00 +19°C° 0 mm 0 m/s 665 mmHg 94%
    07:00 +19°C° 0 mm 0 m/s 665 mmHg 94%
    08:00 +23°C° 0 mm 1 m/s 666 mmHg 86%
    09:00 +25°C° 0 mm 1 m/s 666 mmHg 79%
    10:00 +27°C° 0 mm 1 m/s 667 mmHg 71%
    11:00 +28°C° 0 mm 1 m/s 666 mmHg 67%
    12:00 +29°C° 0 mm 1 m/s 666 mmHg 62%
    13:00 +30°C° 0 mm 1 m/s 665 mmHg 57%
    14:00 +29°C° 0.5 mm 1 m/s 665 mmHg 63%
    15:00 +28°C° 0.5 mm 1 m/s 665 mmHg 70%
    16:00 +28°C° 0.5 mm 1 m/s 664 mmHg 76%
    17:00 +26°C° 0.4 mm 1 m/s 664 mmHg 79%
    18:00 +22°C° 0.4 mm 0 m/s 665 mmHg 82%
    19:00 +21°C° 0.4 mm 0 m/s 665 mmHg 85%
    20:00 +20°C° 0.2 mm 0 m/s 665 mmHg 86%
    21:00 +20°C° 0.2 mm 0 m/s 665 mmHg 88%
    22:00 +20°C° 0.2 mm 0 m/s 666 mmHg 89%
    23:00 +19°C° 0 mm 0 m/s 665 mmHg 91%
    Voir plus